EW7888 Folignano IT current weather conditions

sailwx.info

Wind from 214

Air temperature 25.0° C
Dewpoint 17.7° C

Last reported at 2020-Aug-09 20:01 UTC.
Time now 2020-Aug-09 20:55 UTC

Location: N 42°50' E 013°38'.
View on Google Maps.

See reports from other nearby stations

  
Tides and Currents Weather Stations Pressure Air Temp Water Temp Dewpoint Dewpoint Depression Visibility Wind Speed Wind Dir Waves Ship Positions
date/time (UTC)wind fromknots sea level pressurealtimeterstation pressurevisibilityair tempwater tempwave heightnotes
2020-Aug-09 20:01 214 25.0
2020-Aug-09 19:46 214 0 gusting 3 25.6
2020-Aug-09 19:32 141 25.6
2020-Aug-09 19:01 134 26.7
2020-Aug-09 18:46 148 26.7
2020-Aug-09 18:31 118 27.8
2020-Aug-09 18:01 144 29.4
2020-Aug-09 17:46 188 30.0
2020-Aug-09 17:31 096 30.6
2020-Aug-09 17:01 098 0 gusting 5 31.1
2020-Aug-09 16:47 090 31.7
2020-Aug-09 16:31 082 1 gusting 8 31.7
2020-Aug-09 16:01 046 1 gusting 6 32.2
2020-Aug-09 15:46 069 3 gusting 6 32.2
2020-Aug-09 15:31 051 3 gusting 6 32.2
2020-Aug-09 15:02 105 32.8
2020-Aug-09 14:31 057 32.8
2020-Aug-09 14:00 056 0 gusting 4 33.3
2020-Aug-09 13:46 069 32.8
2020-Aug-09 13:31 067 32.2
2020-Aug-09 13:01 076 3 gusting 9 32.2
2020-Aug-09 12:45 025 4 gusting 10 32.2
2020-Aug-09 12:30 028 1 gusting 6 32.8
2020-Aug-09 12:01 094 32.8
2020-Aug-09 11:45 090 32.8
2020-Aug-09 11:30 080 2 gusting 9 32.2
2020-Aug-09 11:00 009 32.8
2020-Aug-09 10:45 077 2 gusting 9 32.8
2020-Aug-09 10:30 046 32.2
2020-Aug-09 10:00 348 31.7
2020-Aug-09 09:45 067 4 gusting 7 31.7
2020-Aug-09 09:30 025 31.7
2020-Aug-09 09:02 109 1 gusting 6 30.6
2020-Aug-09 08:47 331 30.0
2020-Aug-09 08:31 333 1 gusting 6 29.4
2020-Aug-09 08:00 348 2 gusting 6 28.3
2020-Aug-09 07:46 348 2 gusting 8 27.8
2020-Aug-09 07:32 309 0 gusting 4 27.2
2020-Aug-09 07:00 309 25.6
2020-Aug-09 06:45 302 2 gusting 4 25.0
2020-Aug-09 06:31 317 1 gusting 5 23.9
2020-Aug-09 06:00 355 22.2
2020-Aug-09 05:45 355 21.7
2020-Aug-09 05:30 355 21.1
2020-Aug-09 05:00 028 20.0
2020-Aug-09 04:46 028 20.0
2020-Aug-09 04:30 028 20.0
2020-Aug-09 04:00 269 20.0
2020-Aug-09 03:47 269 20.0
2020-Aug-09 03:32 269 20.0
2020-Aug-09 03:01 269 20.6
2020-Aug-09 02:46 269 20.6
2020-Aug-09 02:33 269 20.6
2020-Aug-09 02:00 269 20.6
2020-Aug-09 01:47 269 0 gusting 4 20.6
2020-Aug-09 01:31 250 21.1
2020-Aug-09 01:01 251 0 gusting 4 21.1
2020-Aug-09 00:45 251 21.1
2020-Aug-09 00:31 239 21.7
2020-Aug-09 00:01 239 21.7
2020-Aug-08 23:46 274 21.7
2020-Aug-08 23:31 245 22.2
2020-Aug-08 23:02 271 22.2
2020-Aug-08 22:46 271 22.2
2020-Aug-08 22:31 277 2 gusting 6 22.8
2020-Aug-08 22:01 240 3 gusting 6 22.8
2020-Aug-08 21:47 239 23.3
2020-Aug-08 21:31 232 3 gusting 8 23.3
2020-Aug-08 21:01 282 1 gusting 6 23.3
2020-Aug-08 20:45 275 23.9
2020-Aug-08 20:30 279 23.9
2020-Aug-08 20:01 300 24.4
2020-Aug-08 19:46 301 24.4
2020-Aug-08 19:30 301 25.0
2020-Aug-08 19:00 301 25.6
2020-Aug-08 18:46 301 26.7
2020-Aug-08 18:31 301 27.2
2020-Aug-08 18:01 301 28.9
2020-Aug-08 17:47 300 28.9
2020-Aug-08 17:31 301 29.4
2020-Aug-08 17:01 338 29.4
2020-Aug-08 16:46 014 2 gusting 6 30.0
2020-Aug-08 16:31 360 1 gusting 6 30.6
2020-Aug-08 16:01 360 1 gusting 5 30.6
2020-Aug-08 15:46 011 1 gusting 7 30.0
2020-Aug-08 15:30 334 30.6
2020-Aug-08 15:01 033 0 gusting 5 30.0
2020-Aug-08 14:46 350 30.6
2020-Aug-08 14:32 355 6 gusting 13 30.6
2020-Aug-08 14:00 019 5 gusting 12 29.4
2020-Aug-08 13:46 029 8 gusting 13 29.4
2020-Aug-08 13:31 009 3 gusting 10 30.0
2020-Aug-08 13:00 322 6 gusting 14 30.0
2020-Aug-08 12:46 014 4 gusting 9 29.4
2020-Aug-08 12:31 018 1 gusting 7 30.0
2020-Aug-08 12:00 045 6 gusting 12 28.9
2020-Aug-08 11:45 360 3 gusting 8 29.4
2020-Aug-08 11:30 340 3 gusting 12 28.9
2020-Aug-08 11:00 319 6 gusting 13 28.3
2020-Aug-08 10:45 347 7 gusting 15 28.3
2020-Aug-08 10:30 316 6 gusting 12 27.8
2020-Aug-08 10:00 236 10 gusting 17 27.8
2020-Aug-08 09:45 323 6 gusting 15 27.8
2020-Aug-08 09:30 304 7 gusting 15 27.8
2020-Aug-08 09:00 272 5 gusting 13 28.9
2020-Aug-08 08:45 336 3 gusting 13 28.3
2020-Aug-08 08:30 307 5 gusting 12 27.8
2020-Aug-08 08:00 255 8 gusting 15 27.8
2020-Aug-08 07:45 259 9 gusting 18 26.7
2020-Aug-08 07:30 281 6 gusting 13 26.1
2020-Aug-08 07:00 256 8 gusting 18 25.6
2020-Aug-08 06:47 261 3 gusting 9 24.4
2020-Aug-08 06:34 318 5 gusting 11 24.4
2020-Aug-08 06:16 323 5 gusting 13 23.9
2020-Aug-08 06:02 302 1 gusting 8 23.3
2020-Aug-08 05:46 276 4 gusting 8 23.3
2020-Aug-08 05:32 269 4 gusting 10 22.2
2020-Aug-08 05:17 291 6 gusting 10 21.7
2020-Aug-08 05:02 319 3 gusting 9 20.6
2020-Aug-08 04:46 263 19.4
2020-Aug-08 04:31 244 19.4
2020-Aug-08 04:16 262 19.4
2020-Aug-08 04:02 262 20.0
2020-Aug-08 03:47 262 20.0
2020-Aug-08 03:32 262 20.0
2020-Aug-08 03:15 258 20.0
2020-Aug-08 03:01 258 20.0
2020-Aug-08 02:46 258 20.0
2020-Aug-08 02:31 277 20.0
2020-Aug-08 02:15 245 4 gusting 7 20.6
2020-Aug-08 02:01 265 3 gusting 7 20.6
2020-Aug-08 01:46 260 0 gusting 6 20.6
2020-Aug-08 01:30 282 1 gusting 7 20.6
2020-Aug-08 01:15 311 3 gusting 7 20.6
2020-Aug-08 01:01 292 20.6
2020-Aug-08 00:45 277 3 gusting 5 20.6
2020-Aug-08 00:31 266 0 gusting 7 21.1
2020-Aug-08 00:16 266 0 gusting 7 21.1
2020-Aug-08 00:01 244 21.7
2020-Aug-07 23:46 244 21.7
2020-Aug-07 23:31 244 21.7
2020-Aug-07 23:15 279 22.2
2020-Aug-07 23:01 279 22.8
2020-Aug-07 22:45 333 22.8
2020-Aug-07 22:30 082 23.3
2020-Aug-07 22:15 313 23.9
2020-Aug-07 22:00 307 3 gusting 6 24.4
2020-Aug-07 21:45 248 2 gusting 7 24.4
2020-Aug-07 21:30 245 2 gusting 12 24.4
2020-Aug-07 21:15 269 3 gusting 8 25.0
2020-Aug-07 21:02 318 3 gusting 6 25.6
2020-Aug-07 21:00 304 3 gusting 6 25.6
2020-Aug-07 20:46 265 3 gusting 8 26.1
2020-Aug-07 20:31 251 8 gusting 13 26.1
2020-Aug-07 20:16 299 6 gusting 13 26.1
2020-Aug-07 20:03 248 4 gusting 7 26.1